Home   Weather   Ostermundigen   Past weeks

Flag for Switzerland Past Weather in Ostermundigen, Bern, Switzerland — Yesterday and Last 2 Weeks

50 °F

Passing clouds.

Feels Like: 49 °F
Forecast: 32 / 53 °F
Wind: 3 mph from North

Location: Bern / Belp

Current Time: Oct 22, 2016 at 1:49:26 PM

Latest Report: Oct 22, 2016 at 1:20 PM

Visibility: N/A

Pressure: 29.95 "Hg (28.01 "Hg at 556m altitude)

Humidity: 67%

Dew Point: 39 °F

Location of OstermundigenLocation

Past Weather in Ostermundigen — Graph


Ostermundigen Temperature Yesterday

Maximum temperature yesterday: 54 °F (at 4:20 PM)
Minimum temperature yesterday: 37 °F (at 2:50 AM)
Average temperature yesterday: 44 °F

High & Low Weather Summary for the Past Weeks

High63 °F (Oct 15, 3:20 PM)100% (Oct 8, 4:50 AM)30.27 "Hg (Oct 8, 4:50 AM)
Low27 °F (Oct 12, 4:20 AM)51% (Oct 20, 4:20 PM)29.62 "Hg (Oct 14, 5:20 PM)
Average45 °F89%30.05 "Hg
* Reported Oct 7 12:20 PM — Oct 22 12:20 PM, Ostermundigen, Weather by CustomWeather, © 2016

Note: Actual official high and low records may vary slightly from our data, if they occured in-between our weather recording intervals... More about our weather records


Ostermundigen Weather History for the Previous 24 Hours

Scroll right to see more
Time TempWeatherWind HumidityBarometerVisibility
12:20 PM
Sat, Oct 22
48 °FSunny.2 mph66%29.95 "Hg10 mi
11:50 AM46 °FSunny.2 mph76%29.95 "Hg10 mi
11:20 AM45 °FSunny.1 mph81%29.98 "Hg10 mi
10:50 AM41 °FPassing clouds.2 mph87%29.98 "HgN/A
10:20 AM37 °FScattered clouds.No wind93%29.98 "HgN/A
9:50 AM36 °FPartly sunny.No wind100%29.98 "HgN/A
9:20 AM36 °FPartly sunny.No wind93%29.98 "HgN/A
8:50 AM34 °FLight fog.No wind100%29.98 "HgN/A
8:20 AM34 °FLight fog.1 mph100%29.98 "Hg6 mi
7:50 AM32 °FLight fog.1 mph100%29.98 "Hg5 mi
7:20 AM32 °FClear.No wind100%29.98 "Hg10 mi
6:50 AM32 °FClear.1 mph100%29.98 "Hg10 mi
6:20 AM32 °FClear.1 mph100%29.98 "Hg10 mi
5:50 AM32 °FLight fog.No wind100%29.98 "HgN/A
5:20 AM32 °FFog.1 mph100%29.98 "Hg3 mi
4:50 AM32 °FClear.3 mph100%29.98 "Hg10 mi
4:20 AM32 °FClear.3 mph100%29.98 "Hg4 mi
3:50 AM32 °FIce fog.1 mph100%29.98 "Hg3 mi
3:20 AM34 °FChilly.2 mph93%29.98 "Hg6 mi
2:20 AM36 °FPassing clouds.2 mph100%30.01 "HgN/A
1:50 AM36 °FPassing clouds.1 mph100%30.01 "HgN/A
1:20 AM37 °FOvercast.2 mph100%30.01 "HgN/A
12:50 AM36 °FPassing clouds.3 mph100%30.01 "HgN/A
12:20 AM37 °FPassing clouds.1 mph93%30.01 "HgN/A
11:50 PM
Fri, Oct 21
37 °FPassing clouds.No wind100%30.01 "HgN/A
11:20 PM39 °FPassing clouds.2 mph93%30.04 "HgN/A
10:50 PM39 °FPassing clouds.1 mph93%30.04 "HgN/A
10:20 PM39 °FPassing clouds.1 mph93%30.04 "HgN/A
9:50 PM39 °FPassing clouds.1 mph87%30.01 "HgN/A
9:20 PM39 °FPassing clouds.No wind87%30.01 "HgN/A
8:50 PM43 °FPassing clouds.3 mph81%30.01 "HgN/A
8:20 PM45 °FPassing clouds.5 mph76%30.01 "HgN/A
7:50 PM46 °FPassing clouds.1 mph71%30.01 "HgN/A
7:20 PM46 °FPartly cloudy.6 mph76%30.01 "HgN/A
6:50 PM48 °FPassing clouds.3 mph76%29.98 "HgN/A
6:20 PM50 °FPartly sunny.2 mph67%29.98 "HgN/A
5:50 PM50 °FPartly sunny.6 mph67%29.98 "HgN/A
5:20 PM52 °FBroken clouds.3 mph62%29.98 "HgN/A
4:50 PM52 °FScattered clouds.3 mph62%29.98 "HgN/A
4:20 PM54 °FScattered clouds.5 mph63%29.98 "HgN/A
3:50 PM50 °FScattered clouds.5 mph71%29.98 "HgN/A
3:20 PM48 °FBroken clouds.1 mph76%29.98 "HgN/A
2:50 PM50 °FRain showers. Broken clouds.13 mph71%29.98 "HgN/A
2:20 PM50 °FBroken clouds.8 mph67%29.98 "HgN/A
1:50 PM52 °FBroken clouds.6 mph67%29.98 "HgN/A
1:20 PM50 °FBroken clouds.6 mph76%29.98 "HgN/A
Weather by CustomWeather, © 2016

See weather overviewHow to use our weather pages